{"data":{"norad_id":57153,"intl_designator":"2023-090BE","name":"STARLINK-5879","alt_names":[],"object_type":"PAYLOAD","status":"ACTIVE","operator":null,"country":"US","launch_date":"2023-06-23","launch_site_code":"AFETR","launch_vehicle":null,"mission":null,"orbit_class":"UNKNOWN","rcs_meters":null,"size_class":null,"mass_kg":null,"dimensions":null,"purposes":["comms"],"wikipedia_slug":null,"has_3d_model":false,"image_url":null,"decayed_at":null,"tle_current":{"epoch":"2026-05-25T03:29:39.060672Z","epoch_age_seconds":59914,"freshness":"FRESH","line1":"1 57153U 23090BE  26145.14559098  .00001250  00000+0  54983-4 0  9994","line2":"2 57153  43.0028 180.4777 0002106 308.8794  51.1870 15.27571211161868","mean_motion":15.27571211,"eccentricity":0.0002106,"inclination_deg":43.0028,"raan_deg":180.4777,"arg_perigee_deg":308.8794,"mean_anomaly_deg":51.187,"bstar":5.4983e-5,"rev_number":16186,"period_min":94.267291084736,"perigee_km":481.63044225936,"apogee_km":484.52038492797,"semimajor_km":6861.2124135937,"source":"CELESTRAK","updated_at":"2026-05-25T13:38:18.250512Z"}}}